Accueil
METAR-TAF:

METAR-TAF

Aéroports :

Fort Richardson, Alaska, États-Unis

latitude: 61-15-45N, longitude: 149-39-17W, altitude: 115 m

Observation

Le bulletin a été fait il y a 44 minutes, à 04:58 UTC
Vent calme
Température -8°C
Humidité 100%
Pression 982 hPa
Visibilité: 16.1 km
Ciel couvert à une hauteur de 500 ft

METAR: PAFR 190458Z AUTO 00000KT 10SM OVC005 M08/M08 A2900 RMK AO2 SLP831 P0001 T10761084

Heure: 20:42 (05:42 UTC)


TAF: absent

Observations et prévisions météorologiques de plus de 4000 aéroports (messages METAR et TAF).

Les stations disponibles sont représentées par des disques jaunes et rouges sur la carte.

Passer la souris dessus pour voir le nom de la station.

Cliquer dessus pour voir les observations et prévisions météorologiques.

Pour changer de carte: cliquez sur les boutons verts avec une croix noire pour zoomer, sur le bouton vert avec un tiret pour effectuer un zoom arrière, ou sur les flèches vertes pour les cartes adjacentes.


METAR-TAF: